Time,TemperatureF,DewpointF,PressureIn,WindDirection,WindDirectionDegrees,WindSpeedMPH,WindSpeedGustMPH,Humidity,HourlyPrecipIn,Conditions,Clouds,dailyrainin,SoftwareType,DateUTC
2013-09-19 00:01:00,64.8,61.5,30.12,ESE,115,0.0,0.0,89,0.00,,CLR,0.00,VWS V13.01,2013-09-19 04:01:00,
2013-09-19 00:06:00,64.7,61.4,30.12,ESE,115,0.0,0.0,89,0.00,,CLR,0.00,VWS V13.01,2013-09-19 04:06:00,
2013-09-19 00:08:00,64.7,61.4,30.12,ESE,115,0.0,0.0,89,0.00,,CLR,0.00,VWS V13.01,2013-09-19 04:08:00,
2013-09-19 00:13:00,64.5,61.2,30.12,ESE,115,0.0,0.0,89,0.00,,CLR,0.00,VWS V13.01,2013-09-19 04:13:00,
2013-09-19 00:18:00,64.3,61.0,30.12,ESE,115,0.0,0.0,89,0.00,,CLR,0.00,VWS V13.01,2013-09-19 04:18:00,
2013-09-19 00:23:00,64.2,60.9,30.11,ESE,114,0.0,0.0,89,0.00,,CLR,0.00,VWS V13.01,2013-09-19 04:23:00,
2013-09-19 00:28:00,64.1,60.8,30.11,ESE,115,0.0,0.0,89,0.00,,CLR,0.00,VWS V13.01,2013-09-19 04:28:00,
2013-09-19 00:33:00,64.1,61.1,30.11,ESE,115,0.0,0.0,90,0.00,,CLR,0.00,VWS V13.01,2013-09-19 04:33:00,
2013-09-19 00:38:00,64.2,61.2,30.12,ESE,115,0.0,0.0,90,0.00,,CLR,0.00,VWS V13.01,2013-09-19 04:38:00,
2013-09-19 00:43:00,64.3,61.3,30.11,ESE,115,0.0,0.0,90,0.00,,CLR,0.00,VWS V13.01,2013-09-19 04:43:00,
2013-09-19 00:48:00,64.3,61.0,30.11,ESE,114,0.0,0.0,89,0.00,,CLR,0.00,VWS V13.01,2013-09-19 04:48:00,
2013-09-19 00:53:00,64.3,61.0,30.11,ESE,115,0.0,0.0,89,0.00,,CLR,0.00,VWS V13.01,2013-09-19 04:53:00,
2013-09-19 00:58:00,64.3,61.0,30.11,ESE,115,0.0,0.0,89,0.00,,CLR,0.00,VWS V13.01,2013-09-19 04:58:00,
2013-09-19 01:03:00,64.3,61.0,30.11,ESE,115,0.0,0.0,89,0.00,,CLR,0.00,VWS V13.01,2013-09-19 05:03:00,
2013-09-19 01:08:00,64.3,61.0,30.11,ESE,115,0.0,0.0,89,0.00,,CLR,0.00,VWS V13.01,2013-09-19 05:08:00,
2013-09-19 01:13:00,64.2,60.9,30.11,ESE,115,0.0,0.0,89,0.00,,CLR,0.00,VWS V13.01,2013-09-19 05:13:00,
2013-09-19 01:18:00,64.1,60.8,30.11,ESE,115,0.0,0.0,89,0.00,,CLR,0.00,VWS V13.01,2013-09-19 05:18:00,
2013-09-19 01:23:00,64.0,60.7,30.11,ESE,115,0.0,0.0,89,0.00,,CLR,0.00,VWS V13.01,2013-09-19 05:23:00,
2013-09-19 01:28:00,64.0,60.7,30.11,ESE,115,0.0,0.0,89,0.00,,CLR,0.00,VWS V13.01,2013-09-19 05:28:00,
2013-09-19 01:33:00,63.9,60.6,30.11,ESE,114,0.0,0.0,89,0.00,,CLR,0.00,VWS V13.01,2013-09-19 05:33:00,
2013-09-19 01:38:00,63.8,60.5,30.10,ESE,114,0.0,0.0,89,0.00,,CLR,0.00,VWS V13.01,2013-09-19 05:38:00,
2013-09-19 01:43:00,63.7,60.4,30.10,ESE,114,0.0,0.0,89,0.00,,CLR,0.00,VWS V13.01,2013-09-19 05:43:00,
2013-09-19 01:48:00,63.6,60.3,30.10,ESE,114,0.0,0.0,89,0.00,,CLR,0.00,VWS V13.01,2013-09-19 05:48:00,
2013-09-19 01:53:00,63.4,60.1,30.10,ESE,115,0.0,0.0,89,0.00,,CLR,0.00,VWS V13.01,2013-09-19 05:53:00,
2013-09-19 01:58:00,63.3,60.3,30.10,ESE,114,0.0,0.0,90,0.00,,CLR,0.00,VWS V13.01,2013-09-19 05:58:00,
2013-09-19 02:03:00,63.3,60.3,30.11,ESE,115,0.0,0.0,90,0.00,,CLR,0.00,VWS V13.01,2013-09-19 06:03:00,
2013-09-19 02:08:00,63.2,60.2,30.10,ESE,115,0.0,0.0,90,0.00,,CLR,0.00,VWS V13.01,2013-09-19 06:08:00,
2013-09-19 02:13:00,63.1,60.1,30.10,ESE,115,0.0,0.0,90,0.00,,CLR,0.00,VWS V13.01,2013-09-19 06:13:00,
2013-09-19 02:18:00,63.1,60.1,30.10,ESE,115,0.0,0.0,90,0.00,,CLR,0.00,VWS V13.01,2013-09-19 06:18:00,
2013-09-19 02:23:00,63.1,60.1,30.10,ESE,115,0.0,0.0,90,0.00,,CLR,0.00,VWS V13.01,2013-09-19 06:23:00,
2013-09-19 02:28:00,62.9,59.9,30.10,ESE,115,0.0,0.0,90,0.00,,CLR,0.00,VWS V13.01,2013-09-19 06:28:00,
2013-09-19 02:33:00,62.8,59.8,30.10,ESE,115,0.0,0.0,90,0.00,,CLR,0.00,VWS V13.01,2013-09-19 06:33:00,
2013-09-19 02:38:00,62.7,59.7,30.10,ESE,115,0.0,0.0,90,0.00,,CLR,0.00,VWS V13.01,2013-09-19 06:38:00,
2013-09-19 02:43:00,62.5,59.5,30.10,ESE,115,0.0,0.0,90,0.00,,CLR,0.00,VWS V13.01,2013-09-19 06:43:00,
2013-09-19 02:49:00,62.3,59.3,30.10,ESE,114,0.0,0.0,90,0.00,,CLR,0.00,VWS V13.01,2013-09-19 06:49:00,
2013-09-19 02:54:00,62.1,59.5,30.10,ESE,114,0.0,0.0,91,0.00,,CLR,0.00,VWS V13.01,2013-09-19 06:54:00,
2013-09-19 02:59:00,62.0,59.3,30.10,ESE,114,0.0,0.0,91,0.00,,CLR,0.00,VWS V13.01,2013-09-19 06:59:00,
2013-09-19 03:04:00,62.0,59.3,30.10,ESE,115,0.0,0.0,91,0.00,,CLR,0.00,VWS V13.01,2013-09-19 07:04:00,
2013-09-19 03:09:00,62.0,59.3,30.10,ESE,114,0.0,0.0,91,0.00,,CLR,0.00,VWS V13.01,2013-09-19 07:09:00,
2013-09-19 03:14:00,62.0,59.3,30.10,ESE,115,0.0,0.0,91,0.00,,CLR,0.00,VWS V13.01,2013-09-19 07:14:00,
2013-09-19 03:19:00,62.1,59.5,30.10,ESE,115,0.0,0.0,91,0.00,,CLR,0.00,VWS V13.01,2013-09-19 07:19:00,
2013-09-19 03:24:00,62.1,59.5,30.10,ESE,115,0.0,0.0,91,0.00,,CLR,0.00,VWS V13.01,2013-09-19 07:24:00,
2013-09-19 03:29:00,62.1,59.5,30.09,ESE,115,0.0,0.0,91,0.00,,CLR,0.00,VWS V13.01,2013-09-19 07:29:00,
2013-09-19 03:34:00,62.0,59.3,30.09,ESE,114,0.0,0.0,91,0.00,,CLR,0.00,VWS V13.01,2013-09-19 07:34:00,
2013-09-19 03:39:00,61.9,59.2,30.09,ESE,115,0.0,0.0,91,0.00,,CLR,0.00,VWS V13.01,2013-09-19 07:39:00,
2013-09-19 03:44:00,61.8,59.2,30.09,ESE,114,0.0,0.0,91,0.00,,CLR,0.00,VWS V13.01,2013-09-19 07:44:00,
2013-09-19 03:49:00,61.6,59.0,30.09,ESE,115,0.0,0.0,91,0.00,,CLR,0.00,VWS V13.01,2013-09-19 07:49:00,
2013-09-19 03:54:00,61.5,58.8,30.09,ESE,115,0.0,0.0,91,0.00,,CLR,0.00,VWS V13.01,2013-09-19 07:54:00,
2013-09-19 03:59:00,61.3,58.7,30.09,ESE,114,0.0,0.0,91,0.00,,CLR,0.00,VWS V13.01,2013-09-19 07:59:00,
2013-09-19 04:04:00,61.2,58.6,30.09,ESE,115,0.0,0.0,91,0.00,,CLR,0.00,VWS V13.01,2013-09-19 08:04:00,
2013-09-19 04:09:00,61.1,58.8,30.09,ESE,115,0.0,0.0,92,0.00,,CLR,0.00,VWS V13.01,2013-09-19 08:09:00,
2013-09-19 04:14:00,61.0,58.7,30.09,ESE,115,0.0,0.0,92,0.00,,CLR,0.00,VWS V13.01,2013-09-19 08:14:00,
2013-09-19 04:19:00,60.9,58.6,30.09,ESE,114,0.0,0.0,92,0.00,,CLR,0.00,VWS V13.01,2013-09-19 08:19:00,
2013-09-19 04:24:00,60.9,58.6,30.09,ESE,114,0.0,0.0,92,0.00,,CLR,0.00,VWS V13.01,2013-09-19 08:24:00,
2013-09-19 04:29:00,60.9,58.6,30.09,ESE,114,0.0,0.0,92,0.00,,CLR,0.00,VWS V13.01,2013-09-19 08:29:00,
2013-09-19 04:34:00,61.0,58.7,30.09,ESE,114,0.0,0.0,92,0.00,,CLR,0.00,VWS V13.01,2013-09-19 08:34:00,
2013-09-19 04:39:00,61.1,58.8,30.09,ESE,114,0.0,0.0,92,0.00,,CLR,0.00,VWS V13.01,2013-09-19 08:39:00,
2013-09-19 04:44:00,61.2,58.9,30.09,ESE,114,0.0,0.0,92,0.00,,CLR,0.00,VWS V13.01,2013-09-19 08:44:00,
2013-09-19 04:49:00,61.1,58.8,30.09,ESE,115,0.0,0.0,92,0.00,,CLR,0.00,VWS V13.01,2013-09-19 08:49:00,
2013-09-19 04:54:00,61.2,58.9,30.09,ESE,115,0.0,0.0,92,0.00,,CLR,0.00,VWS V13.01,2013-09-19 08:54:00,
2013-09-19 04:59:00,61.2,58.9,30.09,ESE,115,0.0,0.0,92,0.00,,CLR,0.00,VWS V13.01,2013-09-19 08:59:00,
2013-09-19 05:04:00,61.2,58.9,30.09,ESE,115,0.0,0.0,92,0.00,,CLR,0.00,VWS V13.01,2013-09-19 09:04:00,
2013-09-19 05:09:00,61.2,58.9,30.09,ESE,115,0.0,0.0,92,0.00,,CLR,0.00,VWS V13.01,2013-09-19 09:09:00,
2013-09-19 05:14:00,61.1,58.8,30.09,ESE,115,0.0,0.0,92,0.00,,CLR,0.00,VWS V13.01,2013-09-19 09:14:00,
2013-09-19 05:19:00,60.9,58.6,30.09,ESE,115,0.0,0.0,92,0.00,,CLR,0.00,VWS V13.01,2013-09-19 09:19:00,
2013-09-19 05:24:00,60.8,58.5,30.09,ESE,115,0.0,0.0,92,0.00,,CLR,0.00,VWS V13.01,2013-09-19 09:24:00,
2013-09-19 05:29:00,60.7,58.4,30.09,ESE,115,0.0,0.0,92,0.00,,CLR,0.00,VWS V13.01,2013-09-19 09:29:00,
2013-09-19 05:34:00,60.7,58.4,30.09,ESE,114,0.0,0.0,92,0.00,,CLR,0.00,VWS V13.01,2013-09-19 09:34:00,
2013-09-19 05:39:00,60.5,58.2,30.09,ESE,114,0.0,0.0,92,0.00,,,0.00,VWS V13.01,2013-09-19 09:39:00,
2013-09-19 05:44:00,60.5,58.2,30.09,ESE,114,0.0,0.0,92,0.00,,,0.00,VWS V13.01,2013-09-19 09:44:00,
2013-09-19 05:49:00,60.4,58.1,30.09,ESE,115,0.0,0.0,92,0.00,,,0.00,VWS V13.01,2013-09-19 09:49:00,
2013-09-19 05:54:00,60.2,57.9,30.09,ESE,115,0.0,0.0,92,0.00,,,0.00,VWS V13.01,2013-09-19 09:54:00,
2013-09-19 05:59:00,60.1,57.8,30.09,ESE,115,0.0,0.0,92,0.00,,,0.00,VWS V13.01,2013-09-19 09:59:00,
2013-09-19 06:04:00,60.0,57.7,30.10,ESE,115,0.0,0.0,92,0.00,,,0.00,VWS V13.01,2013-09-19 10:04:00,
2013-09-19 06:09:00,59.9,57.6,30.10,ESE,115,0.0,0.0,92,0.00,,,0.00,VWS V13.01,2013-09-19 10:09:00,
2013-09-19 06:14:00,59.8,57.5,30.10,ESE,115,0.0,0.0,92,0.00,,,0.00,VWS V13.01,2013-09-19 10:14:00,
2013-09-19 06:19:00,59.8,57.5,30.10,ESE,114,0.0,0.0,92,0.00,,,0.00,VWS V13.01,2013-09-19 10:19:00,
2013-09-19 06:24:00,59.7,57.7,30.10,ESE,114,0.0,0.0,93,0.00,,,0.00,VWS V13.01,2013-09-19 10:24:00,
2013-09-19 06:29:00,59.6,57.6,30.10,ESE,114,0.0,0.0,93,0.00,,,0.00,VWS V13.01,2013-09-19 10:29:00,
2013-09-19 06:34:00,59.6,57.3,30.10,ESE,114,0.0,0.0,92,0.00,,,0.00,VWS V13.01,2013-09-19 10:34:00,
2013-09-19 06:39:00,59.5,57.5,30.10,ESE,115,0.0,0.0,93,0.00,,CLR,0.00,VWS V13.01,2013-09-19 10:39:00,
2013-09-19 06:44:00,59.4,57.4,30.10,ESE,114,0.0,0.0,93,0.00,,CLR,0.00,VWS V13.01,2013-09-19 10:44:00,
2013-09-19 06:49:00,59.3,57.3,30.10,ESE,115,0.0,0.0,93,0.00,,CLR,0.00,VWS V13.01,2013-09-19 10:49:00,
2013-09-19 06:54:00,59.0,57.0,30.10,ESE,115,0.0,0.0,93,0.00,,CLR,0.00,VWS V13.01,2013-09-19 10:54:00,
2013-09-19 06:59:00,59.0,57.0,30.11,ESE,115,0.0,0.0,93,0.00,,CLR,0.00,VWS V13.01,2013-09-19 10:59:00,
2013-09-19 07:04:00,59.0,57.0,30.11,ESE,115,0.0,0.0,93,0.00,,CLR,0.00,VWS V13.01,2013-09-19 11:04:00,
2013-09-19 07:09:00,59.0,57.0,30.11,ESE,115,0.0,0.0,93,0.00,,CLR,0.00,VWS V13.01,2013-09-19 11:09:00,
2013-09-19 07:14:00,59.0,57.0,30.11,ESE,114,0.0,0.0,93,0.00,,CLR,0.00,VWS V13.01,2013-09-19 11:14:00,
2013-09-19 07:19:00,59.0,57.0,30.11,ESE,114,0.0,0.0,93,0.00,,CLR,0.00,VWS V13.01,2013-09-19 11:19:00,
2013-09-19 07:24:00,59.0,57.0,30.11,ESE,114,0.0,0.0,93,0.00,,CLR,0.00,VWS V13.01,2013-09-19 11:24:00,
2013-09-19 07:29:00,59.0,57.0,30.12,ESE,115,0.0,0.0,93,0.00,,CLR,0.00,VWS V13.01,2013-09-19 11:29:00,
2013-09-19 07:34:00,59.0,57.0,30.12,ESE,115,0.0,0.0,93,0.00,,CLR,0.00,VWS V13.01,2013-09-19 11:34:00,
2013-09-19 07:39:00,59.0,57.0,30.12,ESE,115,0.0,0.0,93,0.00,,CLR,0.00,VWS V13.01,2013-09-19 11:39:00,
2013-09-19 07:44:00,59.0,57.0,30.12,ESE,115,0.0,0.0,93,0.00,,CLR,0.00,VWS V13.01,2013-09-19 11:44:00,
2013-09-19 07:49:00,59.0,57.0,30.12,ESE,115,0.0,0.0,93,0.00,,CLR,0.00,VWS V13.01,2013-09-19 11:49:00,
2013-09-19 07:54:00,59.1,57.1,30.12,ESE,115,0.0,0.0,93,0.00,,CLR,0.00,VWS V13.01,2013-09-19 11:54:00,
2013-09-19 07:59:00,59.3,57.3,30.13,ESE,115,0.0,0.0,93,0.00,,CLR,0.00,VWS V13.01,2013-09-19 11:59:00,
2013-09-19 08:04:00,59.4,57.4,30.13,ESE,115,0.0,0.0,93,0.00,,CLR,0.00,VWS V13.01,2013-09-19 12:04:00,
2013-09-19 08:09:00,59.6,57.6,30.13,ESE,114,0.0,0.0,93,0.00,,CLR,0.00,VWS V13.01,2013-09-19 12:09:00,
2013-09-19 08:14:00,59.8,57.8,30.13,ESE,114,0.0,0.0,93,0.00,,CLR,0.00,VWS V13.01,2013-09-19 12:14:00,
2013-09-19 08:19:00,60.2,58.5,30.13,ESE,114,0.0,0.0,94,0.00,,CLR,0.00,VWS V13.01,2013-09-19 12:19:00,
2013-09-19 08:24:00,60.5,58.8,30.13,ESE,114,0.0,0.0,94,0.00,,CLR,0.00,VWS V13.01,2013-09-19 12:24:00,
2013-09-19 08:29:00,60.9,59.2,30.13,ESE,115,0.0,0.0,94,0.00,,CLR,0.00,VWS V13.01,2013-09-19 12:29:00,
2013-09-19 08:34:00,61.5,59.8,30.13,ESE,114,0.0,0.0,94,0.00,,CLR,0.00,VWS V13.01,2013-09-19 12:34:00,
2013-09-19 08:39:00,62.3,60.6,30.13,ESE,115,0.0,0.0,94,0.00,,CLR,0.00,VWS V13.01,2013-09-19 12:39:00,
2013-09-19 08:44:00,62.9,60.8,30.13,ESE,115,0.0,0.0,93,0.00,,CLR,0.00,VWS V13.01,2013-09-19 12:44:00,
2013-09-19 08:49:00,63.5,61.4,30.14,ESE,115,0.0,0.0,93,0.00,,CLR,0.00,VWS V13.01,2013-09-19 12:49:00,
2013-09-19 08:54:00,64.1,61.4,30.13,ESE,115,0.0,0.0,91,0.00,,CLR,0.00,VWS V13.01,2013-09-19 12:54:00,
2013-09-19 08:59:00,64.6,61.6,30.14,ESE,115,0.0,0.0,90,0.00,,CLR,0.00,VWS V13.01,2013-09-19 12:59:00,
2013-09-19 09:04:00,64.9,61.3,30.14,ESE,115,0.0,0.0,88,0.00,,,0.00,VWS V13.01,2013-09-19 13:04:00,
2013-09-19 09:09:00,65.2,61.2,30.14,ENE,78,0.0,1.0,87,0.00,,,0.00,VWS V13.01,2013-09-19 13:09:00,
2013-09-19 09:14:00,65.6,61.3,30.14,ENE,67,0.0,0.0,86,0.00,,,0.00,VWS V13.01,2013-09-19 13:14:00,
2013-09-19 09:19:00,66.1,61.5,30.14,ENE,63,0.0,0.0,85,0.00,,,0.00,VWS V13.01,2013-09-19 13:19:00,
2013-09-19 09:24:00,66.4,61.4,30.14,East,81,0.0,0.0,84,0.00,,,0.00,VWS V13.01,2013-09-19 13:24:00,
2013-09-19 09:29:00,66.6,61.3,30.14,ESE,114,0.0,0.0,83,0.00,,,0.00,VWS V13.01,2013-09-19 13:29:00,
2013-09-19 09:34:00,66.9,61.6,30.14,ESE,106,0.0,0.0,83,0.00,,,0.00,VWS V13.01,2013-09-19 13:34:00,
2013-09-19 09:39:00,67.2,61.9,30.14,ESE,109,0.0,0.0,83,0.00,,CLR,0.00,VWS V13.01,2013-09-19 13:39:00,
2013-09-19 09:44:00,67.4,61.4,30.14,East,79,0.0,0.0,81,0.00,,CLR,0.00,VWS V13.01,2013-09-19 13:44:00,
2013-09-19 09:49:00,67.7,62.0,30.14,ESE,111,0.0,0.0,82,0.00,,CLR,0.00,VWS V13.01,2013-09-19 13:49:00,
2013-09-19 09:54:00,68.1,61.7,30.14,East,92,0.0,0.0,80,0.00,,CLR,0.00,VWS V13.01,2013-09-19 13:54:00,
2013-09-19 09:59:00,68.6,61.8,30.14,East,89,4.0,7.0,79,0.00,,CLR,0.00,VWS V13.01,2013-09-19 13:59:00,
2013-09-19 10:04:00,68.8,61.7,30.14,East,86,5.0,7.0,78,0.00,,CLR,0.00,VWS V13.01,2013-09-19 14:04:00,
2013-09-19 10:09:00,69.2,62.1,30.14,East,87,4.0,7.0,78,0.00,,CLR,0.00,VWS V13.01,2013-09-19 14:09:00,
2013-09-19 10:14:00,69.7,61.8,30.14,East,101,4.0,4.0,76,0.00,,CLR,0.00,VWS V13.01,2013-09-19 14:14:00,
2013-09-19 10:19:00,70.2,62.3,30.14,ESE,113,3.0,6.0,76,0.00,,CLR,0.00,VWS V13.01,2013-09-19 14:19:00,
2013-09-19 10:24:00,70.8,62.1,30.14,ENE,76,6.0,7.0,74,0.00,,CLR,0.00,VWS V13.01,2013-09-19 14:24:00,
2013-09-19 10:29:00,70.9,62.6,30.14,SE,132,6.0,7.0,75,0.00,,CLR,0.00,VWS V13.01,2013-09-19 14:29:00,
2013-09-19 10:34:00,71.4,62.3,30.14,ESE,103,2.0,7.0,73,0.00,,CLR,0.00,VWS V13.01,2013-09-19 14:34:00,
2013-09-19 10:39:00,71.9,61.6,30.14,SE,127,6.0,10.0,70,0.00,,CLR,0.00,VWS V13.01,2013-09-19 14:39:00,
2013-09-19 10:44:00,72.0,61.7,30.14,ESE,113,2.0,9.0,70,0.00,,CLR,0.00,VWS V13.01,2013-09-19 14:44:00,
2013-09-19 10:49:00,72.2,61.5,30.14,East,90,5.0,11.0,69,0.00,,CLR,0.00,VWS V13.01,2013-09-19 14:49:00,
2013-09-19 10:54:00,72.4,61.7,30.14,East,99,6.0,9.0,69,0.00,,CLR,0.00,VWS V13.01,2013-09-19 14:54:00,
2013-09-19 10:59:00,72.6,61.9,30.14,East,88,6.0,10.0,69,0.00,,CLR,0.00,VWS V13.01,2013-09-19 14:59:00,
2013-09-19 11:04:00,73.0,61.8,30.14,East,84,4.0,10.0,68,0.00,,CLR,0.00,VWS V13.01,2013-09-19 15:04:00,
2013-09-19 11:09:00,73.3,62.5,30.14,East,80,10.0,11.0,69,0.00,,CLR,0.00,VWS V13.01,2013-09-19 15:09:00,
2013-09-19 11:14:00,73.5,62.7,30.14,East,94,5.0,13.0,69,0.00,,CLR,0.00,VWS V13.01,2013-09-19 15:14:00,
2013-09-19 11:19:00,73.8,62.2,30.14,ESE,121,4.0,10.0,67,0.00,,CLR,0.00,VWS V13.01,2013-09-19 15:19:00,
2013-09-19 11:24:00,74.1,62.5,30.14,ENE,68,11.0,12.0,67,0.00,,CLR,0.00,VWS V13.01,2013-09-19 15:24:00,
2013-09-19 11:29:00,74.1,62.5,30.14,East,88,6.0,13.0,67,0.00,,CLR,0.00,VWS V13.01,2013-09-19 15:29:00,
2013-09-19 11:34:00,74.2,62.5,30.14,ESE,120,0.0,9.0,67,0.00,,CLR,0.00,VWS V13.01,2013-09-19 15:34:00,
2013-09-19 11:39:00,74.7,62.6,30.14,ESE,119,7.0,11.0,66,0.00,,CLR,0.00,VWS V13.01,2013-09-19 15:39:00,
2013-09-19 11:44:00,74.8,62.7,30.14,SE,134,5.0,9.0,66,0.00,,CLR,0.00,VWS V13.01,2013-09-19 15:44:00,
2013-09-19 11:49:00,75.6,63.5,30.14,ENE,72,7.0,9.0,66,0.00,,CLR,0.00,VWS V13.01,2013-09-19 15:49:00,
2013-09-19 11:54:00,75.6,63.0,30.14,ENE,65,0.0,9.0,65,0.00,,CLR,0.00,VWS V13.01,2013-09-19 15:54:00,
2013-09-19 11:59:00,75.7,62.7,30.14,ENE,61,4.0,7.0,64,0.00,,CLR,0.00,VWS V13.01,2013-09-19 15:59:00,
2013-09-19 12:04:00,75.8,63.2,30.14,SE,142,6.0,6.0,65,0.00,,CLR,0.00,VWS V13.01,2013-09-19 16:04:00,
2013-09-19 12:09:00,76.0,62.5,30.14,East,99,0.0,7.0,63,0.00,,CLR,0.00,VWS V13.01,2013-09-19 16:09:00,
2013-09-19 12:14:00,76.1,62.6,30.14,East,82,0.0,7.0,63,0.00,,CLR,0.00,VWS V13.01,2013-09-19 16:14:00,
2013-09-19 12:19:00,76.3,62.8,30.14,SSW,200,0.0,3.0,63,0.00,,CLR,0.00,VWS V13.01,2013-09-19 16:19:00,
2013-09-19 12:24:00,76.7,62.7,30.13,ESE,108,0.0,0.0,62,0.00,,CLR,0.00,VWS V13.01,2013-09-19 16:24:00,
2013-09-19 12:29:00,77.1,62.6,30.13,SE,131,8.0,9.0,61,0.00,,CLR,0.00,VWS V13.01,2013-09-19 16:29:00,
2013-09-19 12:34:00,76.9,62.4,30.13,NNW,329,0.0,10.0,61,0.00,,CLR,0.00,VWS V13.01,2013-09-19 16:34:00,
2013-09-19 12:39:00,77.3,62.8,30.13,ESE,115,0.0,0.0,61,0.00,,CLR,0.00,VWS V13.01,2013-09-19 16:39:00,
2013-09-19 12:44:00,77.8,63.3,30.12,SSE,150,0.0,6.0,61,0.00,,CLR,0.00,VWS V13.01,2013-09-19 16:44:00,
2013-09-19 12:49:00,77.5,62.5,30.12,SE,125,5.0,11.0,60,0.00,,CLR,0.00,VWS V13.01,2013-09-19 16:49:00,
2013-09-19 12:54:00,77.5,62.5,30.12,SSE,161,2.0,6.0,60,0.00,,CLR,0.00,VWS V13.01,2013-09-19 16:54:00,
2013-09-19 12:59:00,77.6,62.6,30.12,SSE,159,0.0,5.0,60,0.00,,CLR,0.00,VWS V13.01,2013-09-19 16:59:00,
2013-09-19 13:04:00,78.0,63.0,30.12,SSE,148,2.0,2.0,60,0.00,,CLR,0.00,VWS V13.01,2013-09-19 17:04:00,
2013-09-19 13:09:00,78.7,63.7,30.11,SW,222,1.0,1.0,60,0.00,,CLR,0.00,VWS V13.01,2013-09-19 17:09:00,
2013-09-19 13:14:00,79.4,63.3,30.11,South,171,4.0,4.0,58,0.00,,CLR,0.00,VWS V13.01,2013-09-19 17:14:00,
2013-09-19 13:19:00,79.6,64.5,30.11,East,97,4.0,8.0,60,0.00,,CLR,0.00,VWS V13.01,2013-09-19 17:19:00,
2013-09-19 13:24:00,79.4,63.8,30.11,SE,128,5.0,7.0,59,0.00,,CLR,0.00,VWS V13.01,2013-09-19 17:24:00,
2013-09-19 13:29:00,79.5,63.9,30.11,ESE,118,6.0,6.0,59,0.00,,CLR,0.00,VWS V13.01,2013-09-19 17:29:00,
2013-09-19 13:34:00,79.2,63.7,30.10,SE,132,2.0,3.0,59,0.00,,CLR,0.00,VWS V13.01,2013-09-19 17:34:00,
2013-09-19 13:39:00,78.9,63.8,30.10,ESE,107,9.0,9.0,60,0.00,,CLR,0.00,VWS V13.01,2013-09-19 17:39:00,
2013-09-19 13:44:00,78.7,63.2,30.10,SE,124,7.0,7.0,59,0.00,,CLR,0.00,VWS V13.01,2013-09-19 17:44:00,
2013-09-19 13:49:00,79.0,63.9,30.10,SE,130,7.0,7.0,60,0.00,,CLR,0.00,VWS V13.01,2013-09-19 17:49:00,
2013-09-19 13:54:00,79.5,63.9,30.10,East,85,2.0,7.0,59,0.00,,CLR,0.00,VWS V13.01,2013-09-19 17:54:00,
2013-09-19 13:59:00,80.1,64.5,30.09,ESE,115,9.0,11.0,59,0.00,,CLR,0.00,VWS V13.01,2013-09-19 17:59:00,
2013-09-19 14:04:00,80.0,63.9,30.09,East,95,7.0,8.0,58,0.00,,CLR,0.00,VWS V13.01,2013-09-19 18:04:00,
2013-09-19 14:09:00,80.4,63.8,30.09,SE,135,2.0,3.0,57,0.00,,CLR,0.00,VWS V13.01,2013-09-19 18:09:00,
2013-09-19 14:15:00,80.8,64.2,30.09,SW,236,2.0,3.0,57,0.00,,CLR,0.00,VWS V13.01,2013-09-19 18:15:00,
2013-09-19 14:20:00,81.4,64.7,30.08,ENE,63,5.0,7.0,57,0.00,,CLR,0.00,VWS V13.01,2013-09-19 18:20:00,
2013-09-19 14:25:00,80.6,64.0,30.08,SE,134,6.0,6.0,57,0.00,,CLR,0.00,VWS V13.01,2013-09-19 18:25:00,
2013-09-19 14:30:00,80.6,63.5,30.08,SE,135,8.0,8.0,56,0.00,,CLR,0.00,VWS V13.01,2013-09-19 18:30:00,
2013-09-19 14:35:00,80.1,63.5,30.08,WSW,247,3.0,4.0,57,0.00,,CLR,0.00,VWS V13.01,2013-09-19 18:35:00,
2013-09-19 14:40:00,80.4,62.8,30.08,ENE,70,2.0,4.0,55,0.00,,CLR,0.00,VWS V13.01,2013-09-19 18:40:00,
2013-09-19 14:45:00,80.5,63.4,30.08,East,92,2.0,3.0,56,0.00,,CLR,0.00,VWS V13.01,2013-09-19 18:45:00,
2013-09-19 14:50:00,80.8,63.1,30.07,SE,138,0.0,0.0,55,0.00,,CLR,0.00,VWS V13.01,2013-09-19 18:50:00,
2013-09-19 14:55:00,81.6,62.8,30.07,SE,144,1.0,3.0,53,0.00,,CLR,0.00,VWS V13.01,2013-09-19 18:55:00,
2013-09-19 15:00:00,82.0,62.7,30.07,East,101,3.0,9.0,52,0.00,,CLR,0.00,VWS V13.01,2013-09-19 19:00:00,
2013-09-19 15:05:00,81.4,62.6,30.07,ESE,118,4.0,5.0,53,0.00,,CLR,0.00,VWS V13.01,2013-09-19 19:05:00,
2013-09-19 15:10:00,81.8,63.0,30.06,East,86,0.0,3.0,53,0.00,,CLR,0.00,VWS V13.01,2013-09-19 19:10:00,
2013-09-19 15:15:00,81.9,63.1,30.06,WSW,254,0.0,5.0,53,0.00,,CLR,0.00,VWS V13.01,2013-09-19 19:15:00,
2013-09-19 15:20:00,82.1,63.3,30.06,NE,56,4.0,6.0,53,0.00,,CLR,0.00,VWS V13.01,2013-09-19 19:20:00,
2013-09-19 15:25:00,81.6,63.4,30.06,East,97,5.0,8.0,54,0.00,,CLR,0.00,VWS V13.01,2013-09-19 19:25:00,
2013-09-19 15:30:00,81.6,63.4,30.06,ENE,78,0.0,0.0,54,0.00,,CLR,0.00,VWS V13.01,2013-09-19 19:30:00,
2013-09-19 15:35:00,82.0,63.7,30.05,SE,136,0.0,0.0,54,0.00,,CLR,0.00,VWS V13.01,2013-09-19 19:35:00,
2013-09-19 15:40:00,82.2,64.4,30.05,ENE,78,4.0,5.0,55,0.00,,CLR,0.00,VWS V13.01,2013-09-19 19:40:00,
2013-09-19 15:45:00,82.3,63.5,30.05,ENE,74,2.0,5.0,53,0.00,,CLR,0.00,VWS V13.01,2013-09-19 19:45:00,
2013-09-19 15:50:00,82.0,63.7,30.05,East,89,6.0,8.0,54,0.00,,CLR,0.00,VWS V13.01,2013-09-19 19:50:00,
2013-09-19 15:55:00,81.7,62.9,30.05,ENE,63,4.0,4.0,53,0.00,,CLR,0.00,VWS V13.01,2013-09-19 19:55:00,
2013-09-19 16:00:00,81.8,63.0,30.04,East,95,0.0,0.0,53,0.00,,CLR,0.00,VWS V13.01,2013-09-19 20:00:00,
2013-09-19 16:05:00,82.3,63.5,30.04,East,85,6.0,10.0,53,0.00,,CLR,0.00,VWS V13.01,2013-09-19 20:05:00,
2013-09-19 16:10:00,82.0,63.7,30.04,East,89,6.0,9.0,54,0.00,,CLR,0.00,VWS V13.01,2013-09-19 20:10:00,
2013-09-19 16:19:00,81.9,63.6,30.04,North,5,2.0,6.0,54,0.00,,CLR,0.00,VWS V13.01,2013-09-19 20:19:00,
2013-09-19 16:24:00,82.6,63.8,30.04,NE,38,1.0,3.0,53,0.00,,CLR,0.00,VWS V13.01,2013-09-19 20:24:00,
2013-09-19 16:29:00,82.5,63.7,30.04,ESE,123,3.0,5.0,53,0.00,,CLR,0.00,VWS V13.01,2013-09-19 20:29:00,
2013-09-19 16:34:00,82.1,63.8,30.04,ENE,67,0.0,7.0,54,0.00,,CLR,0.00,VWS V13.01,2013-09-19 20:34:00,
2013-09-19 16:39:00,82.2,63.9,30.04,ENE,69,5.0,7.0,54,0.00,,CLR,0.00,VWS V13.01,2013-09-19 20:39:00,
2013-09-19 16:44:00,82.3,63.5,30.04,ENE,60,6.0,7.0,53,0.00,,CLR,0.00,VWS V13.01,2013-09-19 20:44:00,
2013-09-19 16:49:00,82.3,63.5,30.04,East,95,2.0,7.0,53,0.00,,CLR,0.00,VWS V13.01,2013-09-19 20:49:00,
2013-09-19 16:54:00,82.4,64.1,30.03,ENE,61,2.0,5.0,54,0.00,,CLR,0.00,VWS V13.01,2013-09-19 20:54:00,
2013-09-19 16:59:00,82.5,64.2,30.03,East,94,5.0,6.0,54,0.00,,CLR,0.00,VWS V13.01,2013-09-19 20:59:00,
2013-09-19 17:04:00,82.5,64.2,30.03,NE,50,1.0,7.0,54,0.00,,CLR,0.00,VWS V13.01,2013-09-19 21:04:00,
2013-09-19 17:09:00,82.7,64.4,30.03,ESE,121,0.0,4.0,54,0.00,,CLR,0.00,VWS V13.01,2013-09-19 21:09:00,
2013-09-19 17:14:00,82.6,64.3,30.03,ESE,103,4.0,7.0,54,0.00,,CLR,0.00,VWS V13.01,2013-09-19 21:14:00,
2013-09-19 17:19:00,82.2,63.9,30.03,ENE,63,3.0,6.0,54,0.00,,CLR,0.00,VWS V13.01,2013-09-19 21:19:00,
2013-09-19 17:24:00,82.2,63.9,30.03,ENE,63,0.0,2.0,54,0.00,,CLR,0.00,VWS V13.01,2013-09-19 21:24:00,
2013-09-19 17:29:00,82.5,64.7,30.03,ESE,117,3.0,5.0,55,0.00,,CLR,0.00,VWS V13.01,2013-09-19 21:29:00,
2013-09-19 17:34:00,82.2,64.4,30.03,East,93,4.0,6.0,55,0.00,,CLR,0.00,VWS V13.01,2013-09-19 21:34:00,
2013-09-19 17:39:00,82.2,64.4,30.03,SE,125,4.0,7.0,55,0.00,,CLR,0.00,VWS V13.01,2013-09-19 21:39:00,
2013-09-19 17:44:00,82.2,64.4,30.04,East,94,6.0,7.0,55,0.00,,CLR,0.00,VWS V13.01,2013-09-19 21:44:00,
2013-09-19 17:49:00,82.0,64.3,30.03,East,88,4.0,7.0,55,0.00,,CLR,0.00,VWS V13.01,2013-09-19 21:49:00,
2013-09-19 17:54:00,82.0,64.3,30.03,East,82,3.0,7.0,55,0.00,,CLR,0.00,VWS V13.01,2013-09-19 21:54:00,
2013-09-19 17:59:00,82.1,64.3,30.03,ESE,111,5.0,8.0,55,0.00,,CLR,0.00,VWS V13.01,2013-09-19 21:59:00,
2013-09-19 18:04:00,82.0,64.3,30.03,East,101,6.0,7.0,55,0.00,,CLR,0.00,VWS V13.01,2013-09-19 22:04:00,
2013-09-19 18:09:00,81.8,64.6,30.03,East,97,3.0,6.0,56,0.00,,CLR,0.00,VWS V13.01,2013-09-19 22:09:00,
2013-09-19 18:14:00,81.7,65.0,30.03,SE,129,3.0,4.0,57,0.00,,CLR,0.00,VWS V13.01,2013-09-19 22:14:00,
2013-09-19 18:19:00,81.5,64.8,30.03,SE,135,4.0,5.0,57,0.00,,CLR,0.00,VWS V13.01,2013-09-19 22:19:00,
2013-09-19 18:24:00,81.4,64.7,30.03,SE,125,3.0,5.0,57,0.00,,CLR,0.00,VWS V13.01,2013-09-19 22:24:00,
2013-09-19 18:29:00,81.2,64.5,30.03,SE,125,4.0,6.0,57,0.00,,CLR,0.00,VWS V13.01,2013-09-19 22:29:00,
2013-09-19 18:34:00,81.1,64.4,30.04,ESE,123,3.0,5.0,57,0.00,,CLR,0.00,VWS V13.01,2013-09-19 22:34:00,
2013-09-19 18:39:00,80.8,64.7,30.04,SE,136,5.0,6.0,58,0.00,,CLR,0.00,VWS V13.01,2013-09-19 22:39:00,
2013-09-19 18:44:00,80.6,65.0,30.04,SE,126,4.0,4.0,59,0.00,,CLR,0.00,VWS V13.01,2013-09-19 22:44:00,
2013-09-19 18:49:00,80.3,65.2,30.04,SE,127,1.0,1.0,60,0.00,,CLR,0.00,VWS V13.01,2013-09-19 22:49:00,
2013-09-19 18:54:00,80.1,65.4,30.04,SE,126,0.0,0.0,61,0.00,,CLR,0.00,VWS V13.01,2013-09-19 22:54:00,
2013-09-19 18:59:00,79.8,65.2,30.04,SE,126,0.0,0.0,61,0.00,,CLR,0.00,VWS V13.01,2013-09-19 22:59:00,
2013-09-19 19:04:00,79.5,65.3,30.04,SE,127,0.0,0.0,62,0.00,,CLR,0.00,VWS V13.01,2013-09-19 23:04:00,
2013-09-19 19:09:00,79.3,65.6,30.04,SE,127,0.0,0.0,63,0.00,,CLR,0.00,VWS V13.01,2013-09-19 23:09:00,
2013-09-19 19:14:00,79.1,66.8,30.04,SE,126,0.0,0.0,66,0.00,,CLR,0.00,VWS V13.01,2013-09-19 23:14:00,
2013-09-19 19:19:00,78.8,66.5,30.04,SE,126,0.0,0.0,66,0.00,,CLR,0.00,VWS V13.01,2013-09-19 23:19:00,
2013-09-19 19:24:00,78.5,66.2,30.04,SE,126,0.0,0.0,66,0.00,,CLR,0.00,VWS V13.01,2013-09-19 23:24:00,
2013-09-19 19:29:00,78.1,66.3,30.04,SE,127,0.0,0.0,67,0.00,,CLR,0.00,VWS V13.01,2013-09-19 23:29:00,
2013-09-19 19:49:00,74.9,65.3,30.04,SE,126,0.0,0.0,72,0.00,,CLR,0.00,VWS V13.01,2013-09-19 23:49:00,
2013-09-19 19:54:00,74.4,65.2,30.04,SE,127,0.0,0.0,73,0.00,,CLR,0.00,VWS V13.01,2013-09-19 23:54:00,
2013-09-19 19:59:00,74.1,65.3,30.04,SE,126,0.0,0.0,74,0.00,,CLR,0.00,VWS V13.01,2013-09-19 23:59:00,
2013-09-19 20:04:00,73.8,65.4,30.04,SE,126,0.0,0.0,75,0.00,,CLR,0.00,VWS V13.01,2013-09-20 00:04:00,
2013-09-19 20:09:00,73.4,65.4,30.04,SE,126,0.0,0.0,76,0.00,,CLR,0.00,VWS V13.01,2013-09-20 00:09:00,
2013-09-19 20:14:00,73.0,65.0,30.04,SE,127,0.0,0.0,76,0.00,,CLR,0.00,VWS V13.01,2013-09-20 00:14:00,
2013-09-19 20:19:00,72.6,65.0,30.04,SE,127,0.0,0.0,77,0.00,,CLR,0.00,VWS V13.01,2013-09-20 00:19:00,
2013-09-19 20:24:00,72.3,64.7,30.04,SE,127,0.0,0.0,77,0.00,,CLR,0.00,VWS V13.01,2013-09-20 00:24:00,
2013-09-19 20:29:00,72.1,64.5,30.04,SE,127,0.0,0.0,77,0.00,,CLR,0.00,VWS V13.01,2013-09-20 00:29:00,
2013-09-19 20:34:00,71.9,64.7,30.04,SE,127,0.0,0.0,78,0.00,,CLR,0.00,VWS V13.01,2013-09-20 00:34:00,
2013-09-19 20:39:00,71.6,64.4,30.04,SE,127,0.0,0.0,78,0.00,,CLR,0.00,VWS V13.01,2013-09-20 00:39:00,
2013-09-19 20:44:00,71.4,64.2,30.04,SE,127,0.0,0.0,78,0.00,,CLR,0.00,VWS V13.01,2013-09-20 00:44:00,
2013-09-19 20:49:00,71.2,64.4,30.04,SE,127,0.0,0.0,79,0.00,,CLR,0.00,VWS V13.01,2013-09-20 00:49:00,
2013-09-19 20:54:00,71.0,64.2,30.05,SE,127,0.0,0.0,79,0.00,,CLR,0.00,VWS V13.01,2013-09-20 00:54:00,
2013-09-19 20:59:00,70.9,64.1,30.04,SE,127,0.0,0.0,79,0.00,,CLR,0.00,VWS V13.01,2013-09-20 00:59:00,
2013-09-19 21:04:00,70.6,64.1,30.04,SE,127,0.0,0.0,80,0.00,,CLR,0.00,VWS V13.01,2013-09-20 01:04:00,
2013-09-19 21:09:00,70.4,64.3,30.04,SE,127,0.0,0.0,81,0.00,,CLR,0.00,VWS V13.01,2013-09-20 01:09:00,
2013-09-19 21:14:00,70.3,64.2,30.05,SE,127,0.0,0.0,81,0.00,,CLR,0.00,VWS V13.01,2013-09-20 01:14:00,
2013-09-19 21:19:00,70.2,64.1,30.04,SE,127,0.0,0.0,81,0.00,,CLR,0.00,VWS V13.01,2013-09-20 01:19:00,
2013-09-19 21:24:00,70.0,63.9,30.04,SE,127,0.0,0.0,81,0.00,,CLR,0.00,VWS V13.01,2013-09-20 01:24:00,
2013-09-19 21:29:00,69.9,63.8,30.05,SE,127,0.0,0.0,81,0.00,,CLR,0.00,VWS V13.01,2013-09-20 01:29:00,
2013-09-19 21:34:00,69.8,64.1,30.04,SE,127,0.0,0.0,82,0.00,,CLR,0.00,VWS V13.01,2013-09-20 01:34:00,
2013-09-19 21:39:00,69.6,63.9,30.04,SE,126,0.0,0.0,82,0.00,,CLR,0.00,VWS V13.01,2013-09-20 01:39:00,
2013-09-19 21:44:00,69.4,63.7,30.04,SE,126,0.0,0.0,82,0.00,,CLR,0.00,VWS V13.01,2013-09-20 01:44:00,
2013-09-19 21:49:00,69.2,63.5,30.04,SE,126,0.0,0.0,82,0.00,,CLR,0.00,VWS V13.01,2013-09-20 01:49:00,
2013-09-19 21:54:00,69.1,63.7,30.04,SE,126,0.0,0.0,83,0.00,,CLR,0.00,VWS V13.01,2013-09-20 01:54:00,
2013-09-19 21:59:00,68.9,63.5,30.04,SE,126,0.0,0.0,83,0.00,,CLR,0.00,VWS V13.01,2013-09-20 01:59:00,
2013-09-19 22:04:00,68.8,63.4,30.04,SE,126,0.0,0.0,83,0.00,,CLR,0.00,VWS V13.01,2013-09-20 02:04:00,
2013-09-19 22:09:00,68.6,63.2,30.04,SE,126,0.0,0.0,83,0.00,,CLR,0.00,VWS V13.01,2013-09-20 02:09:00,
2013-09-19 22:14:00,68.5,63.1,30.04,SE,126,0.0,0.0,83,0.00,,CLR,0.00,VWS V13.01,2013-09-20 02:14:00,
2013-09-19 22:19:00,68.3,63.3,30.04,SE,127,0.0,0.0,84,0.00,,CLR,0.00,VWS V13.01,2013-09-20 02:19:00,
2013-09-19 22:24:00,68.2,63.2,30.04,SE,126,0.0,0.0,84,0.00,,CLR,0.00,VWS V13.01,2013-09-20 02:24:00,
2013-09-19 22:29:00,68.1,63.1,30.04,SE,127,0.0,0.0,84,0.00,,CLR,0.00,VWS V13.01,2013-09-20 02:29:00,
2013-09-19 22:34:00,68.0,63.0,30.04,SE,127,0.0,0.0,84,0.00,,CLR,0.00,VWS V13.01,2013-09-20 02:34:00,
2013-09-19 22:39:00,67.9,63.2,30.04,SE,127,0.0,0.0,85,0.00,,CLR,0.00,VWS V13.01,2013-09-20 02:39:00,
2013-09-19 22:44:00,67.8,63.1,30.04,SE,127,0.0,0.0,85,0.00,,CLR,0.00,VWS V13.01,2013-09-20 02:44:00,
2013-09-19 22:49:00,67.7,63.0,30.04,SE,127,0.0,0.0,85,0.00,,CLR,0.00,VWS V13.01,2013-09-20 02:49:00,
2013-09-19 22:54:00,67.6,62.9,30.04,SE,127,0.0,0.0,85,0.00,,CLR,0.00,VWS V13.01,2013-09-20 02:54:00,
2013-09-19 22:59:00,67.5,62.8,30.04,SE,127,0.0,0.0,85,0.00,,CLR,0.00,VWS V13.01,2013-09-20 02:59:00,
2013-09-19 23:04:00,67.4,62.7,30.04,SE,127,0.0,0.0,85,0.00,,CLR,0.00,VWS V13.01,2013-09-20 03:04:00,
2013-09-19 23:09:00,67.2,62.9,30.04,SE,127,0.0,0.0,86,0.00,,CLR,0.00,VWS V13.01,2013-09-20 03:09:00,
2013-09-19 23:14:00,67.0,62.7,30.04,SE,126,0.0,0.0,86,0.00,,CLR,0.00,VWS V13.01,2013-09-20 03:14:00,
2013-09-19 23:19:00,66.9,62.6,30.04,SE,126,0.0,0.0,86,0.00,,CLR,0.00,VWS V13.01,2013-09-20 03:19:00,
2013-09-19 23:24:00,66.7,62.4,30.04,SE,127,0.0,0.0,86,0.00,,CLR,0.00,VWS V13.01,2013-09-20 03:24:00,
2013-09-19 23:30:00,66.7,62.4,30.04,SE,127,0.0,0.0,86,0.00,,CLR,0.00,VWS V13.01,2013-09-20 03:30:00,
2013-09-19 23:35:00,66.6,62.3,30.04,SE,127,0.0,0.0,86,0.00,,CLR,0.00,VWS V13.01,2013-09-20 03:35:00,
2013-09-19 23:40:00,66.5,62.5,30.03,SE,127,0.0,0.0,87,0.00,,CLR,0.00,VWS V13.01,2013-09-20 03:40:00,
2013-09-19 23:45:00,66.3,62.3,30.03,SE,126,0.0,0.0,87,0.00,,CLR,0.00,VWS V13.01,2013-09-20 03:45:00,
2013-09-19 23:50:00,66.1,62.1,30.03,SE,127,0.0,0.0,87,0.00,,CLR,0.00,VWS V13.01,2013-09-20 03:50:00,
2013-09-19 23:55:00,66.0,62.0,30.03,SE,127,0.0,0.0,87,0.00,,CLR,0.00,VWS V13.01,2013-09-20 03:55:00,